[[{"header":{"parameterUnit":"m.s-1","parameterCategory":1,"la1":30.2991,"la2":30.254,"lo1":-89.0895,"lo2":-89.0444,"dy":0.0017,"dx":0.0017,"nx":28,"ny":28,"refTime":"2023-09-29T21:00:00:Z","depth":0,"parameterNumber":2,"parameterNumberName":"U-component_of_WINDS"},"data":[0,0,0,0,0,0,0,0,0,0,0,0,0,0,0,0,0,0,0,0,0,0,0,0,0,0,0,0,0,0,0,0,0,0,0,0,0,0,0,0,0,0,0,0,0,0,0,0,0,0,0,0,0,0,0,0,0,0,-3.9104,-3.9103,0,-3.9026,-3.9025,-3.9024,-3.8883,-3.888,-3.8878,-3.8875,-3.8798,-3.8799,-3.8799,0,0,0,0,0,0,0,0,0,0,0,0,0,-3.9135,-3.9135,-3.9104,-3.9103,-3.9102,-3.9026,-3.9025,-3.9024,-3.8884,-3.888,-3.8877,-3.8874,-3.8798,-3.8799,-3.8799,0,0,0,0,0,0,0,0,0,0,0,0,0,-3.9096,-3.9135,-3.9104,-3.9023,-3.9014,-3.9026,-3.9025,-3.9023,-3.8884,-3.888,-3.8876,-3.8872,-3.8798,-3.8799,-3.8799,-3.8885,0,0,-3.8802,-3.8802,0,0,0,0,0,0,0,0,-3.9098,-3.9095,-3.9035,-3.9028,-3.9019,-3.896,-3.9007,-3.8977,-3.8885,-3.8934,-3.8875,-3.887,-3.8856,-3.8851,-3.8846,-3.8881,-3.8878,-3.8802,-3.8802,-3.8802,-3.8803,0,0,0,0,0,0,0,-3.9101,-3.9098,-3.9073,-3.9035,-3.9025,-3.8991,-3.8981,-3.9001,-3.8919,-3.8929,-3.8919,-3.8911,-3.885,-3.8845,-3.8843,-3.8877,-3.8802,-3.8802,-3.8803,-3.8803,-3.8981,-3.8985,0,0,0,0,0,0,-3.9115,-3.9101,-3.9075,-3.907,-3.905,-3.8994,-3.8983,-3.8983,-3.8918,-3.8904,-3.8915,-3.8905,-3.8846,-3.8842,-3.884,-3.8937,-3.8802,-3.8803,-3.8803,-3.8977,-3.8982,-3.8987,0,0,0,0,0,0,-3.9117,-3.9115,-3.9078,-3.9083,-3.9076,-3.8998,-3.8999,-3.8984,-3.8978,-3.8907,-3.8892,-3.8925,-3.8843,-3.8839,-3.8875,-3.8932,-3.8803,-3.8804,-3.8972,-3.8978,-3.8984,-3.9131,0,0,0,0,0,0,-3.9118,-3.9116,-3.9146,-3.9084,-3.9076,-3.9114,-3.9003,-3.8985,-3.898,-3.8966,-3.8912,-3.8899,-3.8839,-3.8875,-3.8876,-3.8931,-3.8805,-3.8966,-3.8975,-3.8982,-3.9121,-3.9142,-3.916,0,0,0,0,0,-3.912,-3.9191,-3.9149,-3.9146,-3.9112,-3.9118,-3.9113,-3.9041,-3.8985,-3.9016,-3.897,-3.8901,-3.8926,-3.888,-3.8879,-3.8936,-3.8962,-3.8972,-3.8982,-3.9112,-3.9138,-3.9159,0,0,0,0,0,0,-3.9262,-3.9181,-3.9133,-3.9186,-3.916,-3.9094,-3.9131,-3.9071,-3.906,-3.9048,-3.8961,-3.895,-3.8999,-3.897,-3.892,-3.9016,-3.8933,-3.8943,-3.9033,-3.9056,-3.9075,-3.9082,-3.8805,0,0,0,0,0,-3.93,-3.931,-3.9239,-3.9293,-3.9282,-3.9209,-3.9209,-3.9156,-3.9126,-3.9114,-3.9071,-3.9045,-3.9047,-3.905,-3.9047,-3.9116,-3.9104,-3.9155,-3.9175,-3.9191,-3.9201,-3.9237,-3.926,-3.9018,-3.9018,-3.9018,0,0,-3.9378,-3.9335,-3.9346,-3.932,-3.9294,-3.9308,-3.9201,-3.9219,-3.9229,-3.9117,-3.9149,-3.9117,-3.9082,-3.9136,-3.9157,-3.9114,-3.9265,-3.9203,-3.9217,-3.9218,-3.925,-3.9273,-3.9293,-3.9025,-3.9024,-3.9023,0,0,-3.9527,-3.9494,-3.9536,-3.9512,-3.9473,-3.9424,-3.9435,-3.9378,-3.9352,-3.9383,-3.9299,-3.9311,-3.9315,-3.9294,-3.9285,-3.9428,-3.9365,-3.943,-3.9532,-3.9569,-3.9588,-3.9604,-3.9657,-3.9677,-3.944,-3.9441,-3.9441,0,-3.9628,-3.9645,-3.9566,-3.959,-3.9582,-3.9481,-3.9524,-3.9505,-3.9468,-3.9465,-3.9417,-3.9422,-3.9391,-3.9439,-3.9475,-3.947,-3.948,-3.9436,-3.9591,-3.9607,-3.9621,-3.9671,-3.9691,-3.9449,-3.9448,-3.9447,-3.9446,0,-3.9773,-3.9786,-3.9825,-3.9791,-3.9787,-3.9821,-3.9749,-3.9755,-3.9704,-3.9661,-3.9695,-3.9654,-3.9643,-3.9651,-3.96,-3.9693,-3.9667,-3.9607,-3.9522,-3.9654,-3.9699,-3.9717,-3.9461,-3.9458,-3.9455,-3.9453,0,0,-4.0009,-3.9932,-3.9948,-3.9932,-3.9882,-3.9891,-3.9922,-3.991,-3.9918,-3.9896,-3.9921,-3.9928,-3.9872,-3.9861,-3.9807,-3.984,-3.9959,-3.9775,-3.9773,-3.9812,-4.0061,-4.0108,-4.0131,-3.9916,-3.9919,-3.9922,-4.0064,0,-4.0148,-4.0194,-4.0125,-4.0188,-4.02,-4.0104,-4.0131,-4.0105,-4.0066,-4.0072,-4.0029,-4.0037,-3.9961,-3.9954,-3.9982,-3.9938,-4.0008,-3.9927,-3.994,-3.9942,-3.9953,-4.0154,-4.0203,-4.0339,-4.0081,-4.0084,-4.0086,0,-4.0316,-4.0303,-4.0367,-4.0314,-4.0317,-4.0342,-4.0327,-4.0333,-4.0302,-4.0272,-4.0261,-4.0198,-4.0226,-4.0143,-4.0182,-4.0129,-4.013,-4.011,-4.0114,-4.0113,-4.0023,-4.016,-4.038,-4.0402,-4.0113,-4.0111,-4.0109,0,-4.0484,-4.0482,-4.052,-4.0509,-4.0449,-4.0469,-4.0446,-4.041,-4.0408,-4.0396,-4.0394,-4.0385,-4.0381,-4.0377,-4.0314,-4.0259,-4.0361,-4.0273,-4.0338,-4.034,-4.0365,-4.0364,-4.059,-4.0364,-4.0364,-4.0363,-4.0363,0,-4.0647,-4.0691,-4.0595,-4.0618,-4.0665,-4.0586,-4.0635,-4.0601,-4.0571,-4.0588,-4.0505,-4.0523,-4.0438,-4.0448,-4.0399,-4.044,-4.0438,-4.0416,-4.0403,-4.0424,-4.0427,-4.0424,-4.0414,-4.0369,-4.0368,-4.0366,-4.0366,0,-4.0843,-4.078,-4.0815,-4.0756,-4.0742,-4.0779,-4.0729,-4.075,-4.0706,-4.0729,-4.073,-4.0662,-4.0669,-4.0606,-4.0601,-4.0568,-4.0633,-4.0602,-4.0643,-4.0634,-4.0704,-4.0699,-4.0936,-4.0965,-4.072,-4.0723,-4.0725,0,-4.0951,-4.0982,-4.0926,-4.0931,-4.0912,-4.0921,-4.0918,-4.0843,-4.0844,-4.0813,-4.0838,-4.0838,-4.0834,-4.0851,-4.0802,-4.0799,-4.0768,-4.0852,-4.0767,-4.0789,-4.0772,-4.0771,-4.0775,-4.087,-4.0873,-4.0876,-4.0878,0,-4.1152,-4.1119,-4.1119,-4.1108,-4.1108,-4.1096,-4.1079,-4.1088,-4.1006,-4.1013,-4.1019,-4.1016,-4.1011,-4.1014,-4.1001,-4.0978,-4.0916,-4.0905,-4.092,-4.0943,-4.0966,-4.0956,-4.0693,-4.09,-4.0897,-4.0896,-4.0895,-4.0894,-4.1307,-4.1331,-4.1296,-4.1299,-4.1278,-4.1265,-4.1282,-4.1241,-4.1244,-4.1234,-4.1189,-4.1204,-4.1174,-4.1151,-4.1134,-4.1146,-4.1106,-4.1127,-4.1133,-4.114,-4.1154,-4.0963,-4.1143,-4.1142,-4.1142,-4.1141,-4.1141,0,-4.1505,-4.1478,-4.1481,-4.146,-4.1463,-4.1403,-4.1381,-4.1388,-4.1402,-4.1379,-4.1377,-4.1386,-4.1388,-4.134,-4.1337,-4.1356,-4.1327,-4.1358,-4.1356,-4.1352,-4.1189,-4.1177,-4.1381,-4.1381,-4.1381,-4.1381,-4.1381,-4.1381,-4.1608,-4.1646,-4.161,-4.1638,-4.161,-4.1624,-4.1617,-4.1605,-4.1586,-4.1599,-4.1601,-4.1569,-4.1537,-4.1531,-4.1531,-4.1517,-4.1521,-4.1562,-4.1538,-4.1387,-4.1363,-4.1341,-4.1329,-4.1562,-4.1563,-4.1701,-4.1702,-4.1703]},{"header":{"parameterUnit":"m.s-1","parameterCategory":1,"la1":30.2991,"la2":30.254,"lo1":-89.0895,"lo2":-89.0444,"dy":0.0017,"dx":0.0017,"nx":28,"ny":28,"refTime":"2023-09-29T21:00:00:Z","depth":0,"parameterNumber":3,"parameterNumberName":"V-component_of_WINDS"},"data":[0,0,0,0,0,0,0,0,0,0,0,0,0,0,0,0,0,0,0,0,0,0,0,0,0,0,0,0,0,0,0,0,0,0,0,0,0,0,0,0,0,0,0,0,0,0,0,0,0,0,0,0,0,0,0,0,0,0,0.3594,0.3595,0,0.3611,0.3611,0.3611,0.3706,0.3708,0.371,0.3712,0.3723,0.3721,0.3719,0,0,0,0,0,0,0,0,0,0,0,0,0,0.364,0.3638,0.3594,0.3595,0.3595,0.3611,0.3611,0.3611,0.3705,0.3708,0.3711,0.3713,0.3724,0.3721,0.3719,0,0,0,0,0,0,0,0,0,0,0,0,0,0.3634,0.3638,0.3594,0.3644,0.3648,0.3611,0.3611,0.3611,0.3705,0.3708,0.3712,0.3715,0.3724,0.3722,0.3719,0.3633,0,0,0.371,0.3709,0,0,0,0,0,0,0,0,0.3634,0.3632,0.3636,0.364,0.3645,0.366,0.3631,0.3618,0.3704,0.3683,0.3712,0.3716,0.3699,0.3698,0.3694,0.3634,0.3634,0.371,0.3708,0.3707,0.3707,0,0,0,0,0,0,0,0.3635,0.3632,0.3601,0.3636,0.3642,0.3664,0.3667,0.3629,0.3671,0.3685,0.3692,0.3693,0.3702,0.3696,0.3695,0.3634,0.371,0.3708,0.3706,0.3705,0.3503,0.35,0,0,0,0,0,0,0.3629,0.3632,0.36,0.3601,0.3648,0.366,0.3663,0.3652,0.3672,0.3679,0.369,0.3697,0.3699,0.3698,0.3695,0.3594,0.3707,0.3705,0.3703,0.3507,0.3502,0.3498,0,0,0,0,0,0,0.3629,0.3625,0.36,0.3619,0.3617,0.3656,0.3642,0.365,0.3645,0.3676,0.3683,0.3677,0.3702,0.3699,0.3648,0.3596,0.3703,0.3701,0.3511,0.3505,0.35,0.3392,0,0,0,0,0,0,0.363,0.3625,0.3593,0.3617,0.3616,0.3553,0.3639,0.3648,0.364,0.365,0.3665,0.3671,0.3704,0.3652,0.3645,0.3594,0.3699,0.3516,0.3509,0.3502,0.34,0.3383,0.3369,0,0,0,0,0,0.3632,0.3561,0.3591,0.3587,0.3578,0.355,0.3549,0.359,0.3636,0.3603,0.3624,0.367,0.3604,0.3646,0.3639,0.3586,0.3519,0.3511,0.3503,0.3407,0.3386,0.3369,0,0,0,0,0,0,0.3528,0.3565,0.3599,0.3535,0.3539,0.3566,0.3526,0.3567,0.3557,0.3566,0.3617,0.3619,0.3559,0.3569,0.3615,0.3504,0.3569,0.3559,0.3499,0.348,0.3464,0.3461,0.3696,0,0,0,0,0,0.3498,0.3474,0.3508,0.3447,0.3448,0.3487,0.3476,0.3508,0.3514,0.3515,0.3532,0.3533,0.3513,0.3498,0.3481,0.3404,0.3407,0.3364,0.3349,0.3336,0.3325,0.3282,0.3263,0.3471,0.3471,0.3471,0,0,0.3435,0.3452,0.3434,0.3427,0.3434,0.3406,0.3487,0.3454,0.3433,0.3509,0.3461,0.3474,0.3479,0.3414,0.3386,0.342,0.3269,0.3325,0.3314,0.331,0.3272,0.3252,0.3234,0.3465,0.3466,0.3467,0,0,0.3304,0.3317,0.3267,0.3273,0.3283,0.331,0.3298,0.332,0.3331,0.3285,0.3341,0.3317,0.3281,0.3282,0.3277,0.315,0.319,0.3143,0.3059,0.3017,0.3,0.2986,0.2936,0.2919,0.3133,0.3133,0.3133,0,0.3223,0.3185,0.3236,0.3199,0.3193,0.3265,0.3213,0.3216,0.3219,0.3212,0.3252,0.3208,0.3216,0.3151,0.312,0.3116,0.3101,0.3139,0.2999,0.2985,0.2972,0.2926,0.2907,0.3127,0.3127,0.3128,0.3128,0,0.3084,0.3056,0.3015,0.3018,0.3008,0.2964,0.3006,0.2991,0.3025,0.3046,0.2997,0.3011,0.2997,0.2986,0.3018,0.2924,0.2945,0.2991,0.3057,0.2945,0.2902,0.2885,0.3118,0.312,0.3122,0.3123,0,0,0.2884,0.2918,0.2901,0.2903,0.292,0.2899,0.2859,0.2847,0.2831,0.2832,0.2796,0.2766,0.2808,0.2803,0.2837,0.2801,0.2694,0.2851,0.2852,0.2818,0.2589,0.255,0.2529,0.2725,0.2721,0.2719,0.2587,0,0.2756,0.2688,0.2734,0.2658,0.2632,0.2701,0.2665,0.2671,0.2691,0.267,0.2693,0.2668,0.2729,0.2726,0.2694,0.2714,0.2648,0.2725,0.2688,0.2686,0.2679,0.2507,0.2467,0.2341,0.2571,0.2568,0.2566,0,0.2596,0.2591,0.2513,0.2536,0.2527,0.2494,0.2486,0.2467,0.2475,0.2493,0.2488,0.2531,0.249,0.256,0.2503,0.2554,0.2543,0.255,0.2547,0.254,0.2615,0.2492,0.2303,0.2282,0.2541,0.2543,0.2545,0,0.2452,0.2427,0.2377,0.2377,0.2403,0.2378,0.2387,0.2399,0.2389,0.2383,0.2377,0.2366,0.2358,0.2347,0.2385,0.2433,0.2322,0.2395,0.2332,0.233,0.2301,0.2301,0.2102,0.2302,0.2302,0.2302,0.2303,0,0.2302,0.225,0.2313,0.2281,0.2225,0.2278,0.2221,0.2238,0.2248,0.2219,0.2279,0.225,0.2305,0.2281,0.2311,0.2257,0.2255,0.2265,0.2272,0.2257,0.2255,0.2246,0.2253,0.2297,0.2298,0.2299,0.23,0,0.2129,0.217,0.2119,0.2149,0.2156,0.2112,0.2137,0.2108,0.2135,0.2097,0.2092,0.2131,0.2107,0.2145,0.2125,0.2145,0.207,0.2093,0.2067,0.2071,0.2004,0.2008,0.1788,0.176,0.1982,0.198,0.1978,0,0.2028,0.199,0.2017,0.2003,0.2009,0.1986,0.1977,0.2029,0.2016,0.2023,0.1992,0.1974,0.1961,0.1918,0.1944,0.1928,0.1949,0.1873,0.1946,0.1931,0.1942,0.1942,0.1936,0.1856,0.1853,0.1851,0.1849,0,0.1842,0.1864,0.185,0.1842,0.1829,0.1825,0.1825,0.181,0.1865,0.1848,0.1824,0.1815,0.1795,0.1774,0.1766,0.1774,0.1818,0.1827,0.1811,0.1791,0.1775,0.1779,0.202,0.183,0.1832,0.1833,0.1834,0.1835,0.1699,0.1668,0.1682,0.1663,0.1669,0.1668,0.1642,0.1666,0.1648,0.1637,0.1669,0.1637,0.1646,0.164,0.1643,0.1618,0.1651,0.1628,0.1621,0.1613,0.1601,0.1784,0.1617,0.1618,0.1618,0.1619,0.1619,0,0.1512,0.1525,0.1508,0.1507,0.1492,0.1541,0.1544,0.1527,0.1499,0.1505,0.1492,0.1464,0.1445,0.147,0.1455,0.1429,0.1449,0.1423,0.1423,0.1423,0.1575,0.1588,0.1407,0.1407,0.1407,0.1407,0.1407,0.1407,0.1413,0.1362,0.1386,0.1338,0.1352,0.1323,0.132,0.1318,0.1323,0.129,0.1275,0.1293,0.1306,0.1292,0.1276,0.1284,0.1273,0.1238,0.1253,0.1392,0.1413,0.1432,0.1445,0.1237,0.1237,0.1103,0.1102,0.1101]}]]